1484766001.23,3842,6.88,73944.3,-15.21,-45.33,-45.53,0,*5C
1484766002.46,3843,6.88,73948.3,-15.21,-45.33,-45.67,0,*5A
1484766003.72,3844,6.88,73948.0,-15.21,-45.47,-45.53,0,*59
1484766004.99,3845,6.88,73946.5,-15.21,-45.53,-45.73,0,*5F
1484766006.25,3846,6.88,73948.3,-15.21,-45.67,-45.73,0,*5B
1484766007.51,3847,6.88,73948.5,-15.21,-45.47,-45.67,0,*5D
1484766008.72,3848,6.88,73946.5,-15.23,-45.41,-45.61,0,*50
1484766009.98,3849,6.88,73948.5,-15.19,-45.27,-45.47,0,*5C
1484766011.23,3850,6.88,73948.8,-15.21,-45.21,-45.33,0,*5A
1484766012.43,3851,6.88,73948.0,-15.19,-45.33,-45.53,0,*55
1484766013.7,3852,6.88,73952.5,-15.21,-45.53,-45.73,0,*59
1484766014.91,3853,6.88,73950.5,-15.23,-45.61,-45.61,0,*58
1484766016.17,3854,6.88,73948.8,-15.21,-45.47,-45.67,0,*5F
1484766017.44,3855,6.88,73950.8,-15.21,-45.53,-45.73,0,*5E
1484766018.7,3856,6.88,73954.5,-15.21,-45.53,-45.73,0,*5D
1484766019.95,3857,6.88,73952.0,-15.21,-45.53,-45.67,0,*59
1484766021.18,3858,6.88,73950.0,-15.23,-45.53,-45.73,0,*51
1484766022.41,3859,6.88,73950.5,-15.23,-45.73,-45.95,0,*5A
1484766023.68,3860,6.88,73948.5,-15.21,-45.47,-45.53,0,*5F
1484766024.91,3861,6.88,73944.0,-15.21,-45.67,-45.87,0,*55
1484766026.16,3862,6.88,73948.0,-15.21,-45.53,-45.87,0,*51
1484766027.42,3863,6.88,73946.8,-15.21,-45.47,-45.53,0,*5C
1484766028.71,3864,6.88,73950.3,-15.21,-45.47,-45.73,0,*59
1484766029.95,3865,6.88,73946.0,-15.23,-45.53,-45.81,0,*52
1484766031.18,3866,6.88,73948.8,-15.23,-45.73,-45.95,0,*56
1484766032.41,3867,6.88,73950.8,-15.23,-45.81,-46.01,0,*54
1484766033.65,3868,6.88,73952.5,-15.23,-45.61,-45.73,0,*53
1484766034.9,3869,6.88,73948.0,-15.23,-45.73,-45.73,0,*51
1484766036.13,3870,6.88,73948.3,-15.23,-45.73,-45.95,0,*51
1484766037.38,3871,6.88,73952.3,-15.23,-45.27,-45.53,0,*5B
1484766038.63,3872,6.88,73948.0,-15.23,-45.73,-45.73,0,*5B
1484766039.86,3873,6.88,73948.3,-15.23,-45.41,-45.81,0,*56
1484766041.1,3874,6.88,73950.5,-15.23,-45.53,-45.73,0,*5F
1484766042.37,3875,6.88,73948.0,-15.21,-45.27,-45.33,0,*5B
1484766043.66,3876,6.88,73948.3,-15.21,-45.47,-45.73,0,*5A
1484766044.87,3877,6.88,73950.0,-15.23,-45.61,-46.01,0,*5B
1484766046.1,3878,6.88,73954.8,-15.23,-45.41,-45.73,0,*50
1484766047.33,3879,6.88,73952.5,-15.23,-45.73,-45.95,0,*58
1484766048.6,3880,6.88,73954.0,-15.21,-45.87,-46.07,0,*5F
1484766049.83,3881,6.88,73950.5,-15.25,-45.95,-46.15,0,*5A
1484766051.06,3882,6.88,73948.5,-15.27,-45.67,-45.87,0,*5E
1484766052.32,3883,6.88,73950.8,-15.27,-45.61,-45.81,0,*5F
1484766053.56,3884,6.88,73950.8,-15.25,-45.61,-45.81,0,*5A
1484766054.79,3885,6.88,73948.0,-15.25,-45.61,-45.81,0,*5B
1484766056.04,3886,6.88,73948.5,-15.27,-45.47,-45.67,0,*56
1484766057.28,3887,6.88,73950.0,-15.25,-45.53,-45.81,0,*58
1484766058.53,3888,6.88,73950.8,-15.25,-45.27,-45.61,0,*5A
1484766059.73,3889,6.88,73948.3,-15.25,-45.33,-45.61,0,*5E
1484766060.96,3890,6.88,73952.3,-15.27,-45.41,-45.67,0,*57
1484766062.2,3891,6.88,73948.3,-15.25,-45.27,-45.41,0,*50
1484766063.4,3892,6.88,73950.3,-15.25,-45.33,-45.41,0,*56
1484766064.61,3893,6.88,73950.8,-15.25,-45.53,-45.61,0,*53
1484766065.82,3894,6.88,73950.3,-15.25,-45.33,-45.41,0,*50
1484766067.02,3895,6.88,73946.3,-15.25,-45.33,-45.53,0,*52
1484766068.27,3896,6.88,73950.5,-15.27,-45.41,-45.47,0,*53
1484766069.51,3897,6.88,73950.8,-15.25,-45.53,-45.81,0,*59
1484766070.74,3898,6.88,73950.8,-15.25,-45.33,-45.73,0,*5D
1484766071.99,3899,6.88,73950.0,-15.27,-45.47,-45.67,0,*58
1484766073.19,3900,6.88,73952.0,-15.25,-45.33,-45.61,0,*5E
1484766074.4,3901,6.88,73948.3,-15.25,-45.13,-45.33,0,*5A
1484766075.62,3902,6.88,73950.0,-15.27,-45.41,-45.41,0,*59
1484766076.89,3903,6.88,73950.8,-15.25,-45.07,-45.27,0,*58
1484766078.13,3904,6.88,73948.8,-15.25,-45.27,-45.41,0,*5D
1484766079.33,3905,6.88,73950.8,-15.23,-45.33,-45.61,0,*5D
1484766080.58,3906,6.88,73950.3,-15.25,-45.27,-45.41,0,*5F
1484766081.82,3907,6.88,73948.0,-15.25,-45.27,-45.53,0,*5D
1484766083.03,3908,6.88,73948.3,-15.25,-45.33,-45.41,0,*54
1484766084.27,3909,6.88,73950.3,-15.25,-45.27,-45.33,0,*55
1484766085.48,3910,6.88,73952.3,-15.25,-45.13,-45.33,0,*5A
1484766086.68,3911,6.88,73948.5,-15.25,-45.13,-45.41,0,*5E
1484766087.95,3912,6.88,73948.5,-15.25,-45.07,-45.27,0,*58
1484766089.19,3913,6.88,73950.5,-15.25,-45.27,-45.33,0,*5E
1484766090.42,3914,6.88,73952.8,-15.25,-45.13,-45.27,0,*5B
1484766091.62,3915,6.88,73948.5,-15.25,-45.33,-45.41,0,*58
1484766092.83,3916,6.88,73948.5,-15.23,-45.33,-45.53,0,*5E
1484766094.04,3917,6.88,73948.3,-15.23,-45.33,-45.53,0,*5F
1484766095.27,3918,6.88,73950.5,-15.23,-45.07,-45.41,0,*54
1484766096.48,3919,6.88,73950.5,-15.23,-45.13,-45.33,0,*55
1484766097.69,3920,6.88,73950.8,-15.23,-45.33,-45.53,0,*5B
1484766098.97,3921,6.88,73946.5,-15.21,-45.27,-45.33,0,*5B
1484766100.21,3922,6.88,73954.5,-15.23,-45.27,-45.53,0,*5C
1484766101.46,3923,6.88,73948.5,-15.23,-45.27,-45.33,0,*5B
1484766102.7,3924,6.88,73950.0,-15.23,-45.07,-45.53,0,*58
1484766103.94,3925,6.88,73950.5,-15.23,-45.27,-45.33,0,*5D
1484766105.2,3926,6.88,73950.8,-15.23,-45.07,-45.27,0,*59
1484766106.44,3927,6.88,73950.0,-15.23,-45.07,-45.33,0,*5D
1484766107.74,3928,6.88,73950.5,-15.21,-45.27,-45.47,0,*51
1484766108.98,3929,6.88,73950.8,-15.21,-45.21,-45.21,0,*56
1484766110.2,3930,6.88,73946.5,-15.23,-45.13,-45.53,0,*58
1484766111.41,3931,6.88,73952.8,-15.23,-45.33,-45.53,0,*5B
1484766112.65,3932,6.88,73950.5,-15.21,-45.21,-45.33,0,*5F
1484766113.91,3933,6.88,73950.5,-15.21,-45.47,-45.67,0,*5F
1484766115.12,3934,6.88,73954.0,-15.23,-45.41,-45.53,0,*5B
1484766116.36,3935,6.88,73952.0,-15.23,-45.27,-45.41,0,*59
1484766117.65,3936,6.88,73948.8,-15.21,-45.07,-45.27,0,*5A
1484766118.89,3937,6.88,73950.0,-15.23,-45.53,-45.81,0,*54
1484766120.13,3938,6.88,73952.5,-15.23,-45.53,-45.73,0,*56
1484766121.36,3939,6.88,73950.0,-15.23,-45.41,-45.73,0,*54
1484766122.6,3940,6.88,73950.5,-15.23,-45.27,-45.41,0,*5B
1484766123.85,3941,6.88,73950.3,-15.23,-45.27,-45.33,0,*5F
1484766125.11,3942,6.88,73950.3,-15.21,-45.47,-45.53,0,*5E
1484766126.36,3943,6.88,73950.0,-15.23,-45.27,-45.53,0,*5B
1484766127.6,3944,6.88,73952.3,-15.23,-45.27,-45.41,0,*5F
1484766128.81,3945,6.88,73948.5,-15.23,-45.33,-45.53,0,*58
1484766130.08,3946,6.88,73950.8,-15.21,-45.21,-45.47,0,*5F
1484766131.37,3947,6.88,73948.5,-15.21,-45.27,-45.47,0,*58
1484766132.62,3948,6.88,73954.3,-15.23,-45.27,-45.33,0,*56
1484766133.89,3949,6.88,73950.0,-15.21,-45.21,-45.27,0,*56
1484766135.13,3950,6.88,73952.5,-15.23,-45.27,-45.53,0,*59
1484766136.38,3951,6.88,73954.3,-15.23,-45.27,-45.53,0,*58
1484766137.62,3952,6.88,73950.8,-15.23,-45.27,-45.41,0,*58
1484766138.83,3953,6.88,73950.8,-15.23,-45.33,-45.33,0,*59
1484766140.07,3954,6.88,73950.3,-15.21,-45.21,-45.33,0,*5F
1484766141.36,3955,6.88,73952.5,-15.21,-45.07,-45.47,0,*59
1484766142.56,3956,6.88,73952.5,-15.23,-45.33,-45.41,0,*59
1484766143.8,3957,6.88,73950.5,-15.23,-45.53,-45.73,0,*5F
1484766145.01,3958,6.88,73950.0,-15.23,-45.41,-45.61,0,*50
1484766146.29,3959,6.88,73948.8,-15.21,-45.27,-45.53,0,*52
1484766147.5,3960,6.88,73948.0,-15.23,-45.41,-45.61,0,*5B
1484766148.74,3961,6.88,73954.8,-15.23,-45.27,-45.41,0,*58
1484766149.95,3962,6.88,73950.5,-15.23,-45.41,-45.53,0,*58
1484766151.24,3963,6.88,73948.5,-15.21,-45.27,-45.47,0,*5E
1484766152.48,3964,6.88,73952.3,-15.23,-45.61,-45.81,0,*53
1484766153.68,3965,6.88,73952.5,-15.23,-45.33,-45.41,0,*59
1484766154.95,3966,6.88,73950.0,-15.21,-45.21,-45.47,0,*5D
1484766156.23,3967,6.88,73952.3,-15.21,-45.27,-45.21,0,*5A
1484766157.44,3968,6.88,73948.5,-15.23,-45.13,-45.41,0,*56
1484766158.68,3969,6.88,73954.3,-15.21,-45.21,-45.33,0,*51
1484766159.91,3970,6.88,73952.0,-15.23,-45.33,-45.27,0,*5D
1484766161.11,3971,6.88,73952.0,-15.19,-45.33,-45.53,0,*56
1484766162.35,3972,6.88,73952.5,-15.21,-45.67,-45.87,0,*56
1484766163.59,3973,6.88,73948.8,-15.23,-45.61,-45.81,0,*55
1484766164.82,3974,6.88,73948.5,-15.23,-45.41,-45.73,0,*5D
1484766166.05,3975,6.88,73952.0,-15.23,-45.53,-45.73,0,*5F
1484766167.35,3976,6.88,73950.8,-15.21,-45.27,-45.47,0,*5A
1484766168.57,3977,6.88,73948.8,-15.23,-45.53,-45.61,0,*5E
1484766169.84,3978,6.88,73950.8,-15.21,-45.27,-45.33,0,*57
1484766171.07,3979,6.88,73950.5,-15.23,-45.41,-45.73,0,*50
1484766172.29,3980,6.88,73952.8,-15.23,-45.53,-45.53,0,*57
1484766173.49,3981,6.88,73952.8,-15.23,-45.41,-45.53,0,*55
1484766174.7,3982,6.88,73950.8,-15.23,-45.33,-45.53,0,*53
1484766175.91,3983,6.88,73952.3,-15.23,-45.33,-45.53,0,*52
1484766177.12,3984,6.88,73950.8,-15.23,-45.33,-45.61,0,*54
1484766178.33,3985,6.88,73950.3,-15.23,-45.53,-45.61,0,*53
1484766179.54,3986,6.88,73954.3,-15.23,-45.33,-45.53,0,*57
1484766180.77,3987,6.88,73948.3,-15.23,-45.61,-45.73,0,*53
1484766182.0,3988,6.88,73952.5,-15.23,-45.41,-45.73,0,*5E
1484766183.21,3989,6.88,73952.5,-15.23,-45.33,-45.53,0,*58
1484766184.45,3990,6.88,73952.3,-15.23,-45.27,-45.33,0,*53
1484766185.66,3991,6.88,73950.8,-15.25,-45.33,-45.53,0,*57
1484766186.9,3992,6.88,73950.3,-15.21,-45.21,-45.33,0,*55
1484766188.2,3993,6.88,73952.5,-15.21,-45.27,-45.47,0,*51
1484766189.44,3994,6.88,73948.5,-15.23,-45.27,-45.41,0,*52
1484766190.65,3995,6.88,73952.0,-15.23,-45.33,-45.53,0,*55
1484766191.9,3996,6.88,73954.5,-15.23,-45.27,-45.53,0,*53
1484766193.1,3997,6.88,73954.0,-15.23,-45.33,-45.33,0,*51
1484766194.31,3998,6.88,73954.5,-15.23,-45.13,-45.33,0,*5C
1484766195.51,3999,6.88,73952.3,-15.23,-45.33,-45.33,0,*5F
1484766196.75,4000,6.88,73952.5,-15.23,-45.27,-45.41,0,*51
1484766197.96,4001,6.88,73952.0,-15.23,-45.41,-45.53,0,*53
1484766199.22,4002,6.88,73950.8,-15.21,-45.47,-45.67,0,*53
1484766200.43,4003,6.88,73952.8,-15.23,-45.41,-45.53,0,*51
1484766201.64,4004,6.88,73954.3,-15.23,-45.33,-45.53,0,*53
1484766202.89,4005,6.88,73950.8,-15.23,-45.27,-45.61,0,*56
1484766204.09,4006,6.88,73948.5,-15.23,-45.33,-45.61,0,*50
1484766205.32,4007,6.88,73950.8,-15.23,-45.41,-45.73,0,*57
1484766206.53,4008,6.88,73952.8,-15.23,-45.33,-45.53,0,*5F
1484766207.78,4009,6.88,73954.0,-15.25,-45.73,-45.81,0,*53
1484766209.03,4010,6.88,73950.3,-15.23,-45.27,-45.41,0,*50
1484766210.27,4011,6.88,73952.5,-15.23,-45.27,-45.41,0,*51
1484766211.51,4012,6.88,73952.8,-15.23,-45.53,-45.81,0,*5D
1484766212.72,4013,6.88,73950.5,-15.25,-45.41,-45.61,0,*57
1484766213.95,4014,6.88,73948.5,-15.23,-45.53,-45.73,0,*56
1484766215.18,4015,6.88,73952.3,-15.25,-45.41,-45.73,0,*52
1484766216.39,4016,6.88,73954.8,-15.25,-45.41,-45.61,0,*52
1484766217.6,4017,6.88,73952.8,-15.23,-45.33,-45.61,0,*50
1484766218.81,4018,6.88,73950.5,-15.23,-45.41,-45.61,0,*5A
1484766220.04,4019,6.88,73952.3,-15.23,-45.41,-45.73,0,*58
1484766221.25,4020,6.88,73952.0,-15.25,-45.61,-45.61,0,*55
1484766222.47,4021,6.88,73954.3,-15.27,-45.61,-45.67,0,*50
1484766223.68,4022,6.88,73950.0,-15.25,-45.41,-45.53,0,*54
1484766224.92,4023,6.88,73948.5,-15.23,-45.53,-45.73,0,*52
1484766226.16,4024,6.88,73954.3,-15.25,-45.53,-45.73,0,*53
1484766227.38,4025,6.88,73952.5,-15.25,-45.41,-45.73,0,*51
1484766228.59,4026,6.88,73952.5,-15.25,-45.41,-45.61,0,*51
1484766229.8,4027,6.88,73952.3,-15.25,-45.61,-45.95,0,*59
1484766231.03,4028,6.88,73952.0,-15.27,-45.61,-45.87,0,*57
1484766232.24,4029,6.88,73954.5,-15.25,-45.41,-45.61,0,*5E
1484766233.45,4030,6.88,73954.3,-15.25,-45.41,-45.53,0,*57
1484766234.67,4031,6.88,73948.0,-15.27,-45.61,-45.67,0,*51
1484766235.91,4032,6.88,73950.8,-15.25,-45.61,-45.73,0,*55
1484766237.16,4033,6.88,73950.8,-15.27,-45.47,-45.61,0,*51
1484766238.37,4034,6.88,73950.8,-15.25,-45.33,-45.61,0,*57
1484766239.6,4035,6.88,73950.5,-15.25,-45.53,-45.73,0,*53
1484766240.85,4036,6.88,73952.3,-15.25,-45.27,-45.61,0,*50
1484766242.1,4037,6.88,73950.5,-15.27,-45.47,-45.67,0,*53
1484766243.33,4038,6.88,73952.8,-15.27,-45.41,-45.61,0,*5C
1484766244.56,4039,6.88,73948.5,-15.25,-45.41,-45.73,0,*5C
1484766245.79,4040,6.88,73948.8,-15.25,-45.61,-45.73,0,*50
1484766247.04,4041,6.88,73950.8,-15.27,-45.47,-45.67,0,*52
1484766248.29,4042,6.88,73952.5,-15.25,-45.27,-45.53,0,*52
1484766249.49,4043,6.88,73952.5,-15.25,-45.41,-45.67,0,*54
1484766250.69,4044,6.88,73950.0,-15.25,-45.33,-45.61,0,*50
1484766251.92,4045,6.88,73952.5,-15.27,-45.41,-45.61,0,*56
1484766253.13,4046,6.88,73950.5,-15.25,-45.41,-45.61,0,*57
1484766254.34,4047,6.88,73952.5,-15.25,-45.61,-45.95,0,*5F
1484766255.57,4048,6.88,73948.3,-15.27,-45.67,-45.87,0,*57
1484766256.77,4049,6.88,73950.3,-15.25,-45.33,-45.53,0,*5C
1484766258.03,4050,6.88,73952.0,-15.27,-45.61,-45.81,0,*5E
1484766259.26,4051,6.88,73952.5,-15.27,-45.61,-45.67,0,*57
1484766260.51,4052,6.88,73952.3,-15.27,-45.61,-45.81,0,*5C
1484766261.77,4053,6.88,73952.3,-15.27,-45.47,-45.61,0,*57
1484766263.02,4054,6.88,73948.5,-15.27,-45.61,-45.47,0,*50
1484766264.25,4055,6.88,73950.8,-15.25,-45.41,-45.81,0,*5B
1484766265.48,4056,6.88,73954.8,-15.27,-45.41,-45.67,0,*52
1484766266.73,4057,6.88,73954.5,-15.27,-45.47,-45.67,0,*55
1484766267.94,4058,6.88,73952.3,-15.25,-45.53,-45.61,0,*5B
1484766269.2,4059,6.88,73954.3,-15.27,-45.61,-45.81,0,*57
1484766270.45,4060,6.88,73950.3,-15.27,-45.47,-45.67,0,*51
1484766271.67,4061,6.88,73952.3,-15.27,-45.41,-45.67,0,*56
1484766272.89,4062,6.88,73956.5,-15.27,-45.41,-45.67,0,*55
1484766274.14,4063,6.88,73952.0,-15.27,-45.41,-45.47,0,*56
1484766275.37,4064,6.88,73950.5,-15.27,-45.41,-45.67,0,*53
1484766276.61,4065,6.88,73952.0,-15.25,-45.27,-45.41,0,*54
1484766277.83,4066,6.88,73952.0,-15.27,-45.61,-45.67,0,*53
1484766279.07,4067,6.88,73954.8,-15.29,-45.67,-45.81,0,*52
1484766280.28,4068,6.88,73952.5,-15.29,-45.61,-45.87,0,*5D
1484766281.51,4069,6.88,73956.0,-15.29,-45.47,-45.67,0,*56
1484766282.72,4070,6.88,73952.8,-15.29,-45.41,-45.61,0,*5E
1484766283.94,4071,6.88,73954.0,-15.27,-45.41,-45.61,0,*51
1484766285.18,4072,6.88,73950.8,-15.27,-45.61,-45.61,0,*50
1484766286.43,4073,6.88,73952.8,-15.27,-45.21,-45.47,0,*51
1484766287.64,4074,6.88,73952.0,-15.25,-45.41,-45.61,0,*56
1484766288.89,4075,6.88,73950.3,-15.27,-45.41,-45.47,0,*51
1484766290.11,4076,6.88,73952.8,-15.27,-45.41,-45.67,0,*50
1484766291.34,4077,6.88,73954.3,-15.27,-45.33,-45.61,0,*52
1484766292.54,4078,6.88,73954.3,-15.25,-45.33,-45.61,0,*5F
1484766293.77,4079,6.88,73952.8,-15.27,-45.41,-45.61,0,*59
1484766295.01,4080,6.88,73954.5,-15.27,-45.21,-45.61,0,*59
1484766296.26,4081,6.88,73952.0,-15.27,-45.61,-45.47,0,*58
1484766297.49,4082,6.88,73954.8,-15.27,-45.33,-45.61,0,*58
1484766298.69,4083,6.88,73956.5,-15.29,-45.33,-45.61,0,*57
1484766299.92,4084,6.88,73952.8,-15.27,-45.41,-45.61,0,*5B
1484766301.17,4085,6.88,73954.5,-15.27,-45.33,-45.47,0,*5B
1484766302.39,4086,6.88,73956.3,-15.27,-45.33,-45.67,0,*5A
1484766303.64,4087,6.88,73950.8,-15.27,-45.47,-45.61,0,*5E
1484766304.9,4088,6.88,73956.5,-15.27,-45.47,-45.61,0,*51
1484766306.13,4089,6.88,73952.5,-15.27,-45.61,-45.61,0,*54
1484766307.34,4090,6.81,73950.5,-15.25,-45.41,-45.53,0,*5D
1484766308.57,4091,6.88,73952.5,-15.27,-45.61,-45.67,0,*5B
1484766309.79,4092,6.88,73954.3,-15.27,-45.41,-45.61,0,*5C
1484766311.05,4093,6.88,73954.5,-15.27,-45.47,-45.61,0,*5B
1484766312.28,4094,6.88,73950.0,-15.27,-45.41,-45.61,0,*5A
1484766313.51,4095,6.88,73954.0,-15.27,-45.41,-45.61,0,*5B
1484766314.74,4096,6.88,73954.5,-15.25,-45.53,-45.73,0,*5A
1484766315.97,4097,6.88,73950.3,-15.29,-45.33,-45.47,0,*56
1484766317.2,4098,6.88,73956.3,-15.29,-45.47,-45.67,0,*58
1484766318.43,4099,6.88,73954.0,-15.29,-45.47,-45.67,0,*59
1484766319.67,4100,6.88,73952.0,-15.29,-45.61,-45.81,0,*54
1484766320.9,4101,6.88,73950.0,-15.29,-45.47,-45.67,0,*59
1484766322.11,4102,6.88,73954.8,-15.29,-45.67,-46.01,0,*5B
1484766323.35,4103,6.88,73952.5,-15.29,-45.81,-46.01,0,*52
1484766324.56,4104,6.88,73952.3,-15.29,-45.67,-45.87,0,*50
1484766325.81,4105,6.88,73954.5,-15.27,-45.81,-46.01,0,*5A
1484766327.05,4106,6.81,73948.5,-15.29,-46.01,-46.27,0,*58
1484766328.31,4107,6.88,73956.3,-15.31,-45.73,-45.87,0,*5F
1484766329.51,4108,6.88,73950.8,-15.29,-45.61,-45.67,0,*54
1484766330.74,4109,6.88,73952.5,-15.29,-45.47,-45.67,0,*51
1484766332.0,4110,6.88,73950.0,-15.29,-45.47,-45.81,0,*51
1484766333.24,4111,6.88,73954.8,-15.29,-45.81,-46.01,0,*51
1484766334.45,4112,6.81,73950.8,-15.29,-45.67,-45.87,0,*57
1484766335.69,4113,6.88,73954.8,-15.31,-45.53,-45.87,0,*58
1484766336.94,4114,6.88,73952.8,-15.31,-45.73,-45.95,0,*5E
1484766338.17,4115,6.88,73952.5,-15.31,-45.67,-45.87,0,*59
1484766339.38,4116,6.88,73954.0,-15.29,-45.41,-45.87,0,*57
1484766340.64,4117,6.88,73952.0,-15.31,-45.87,-46.07,0,*5E
1484766341.9,4118,6.88,73954.3,-15.31,-45.73,-45.95,0,*52
1484766343.15,4119,6.88,73952.3,-15.31,-45.73,-45.95,0,*53
1484766344.38,4120,6.88,73956.0,-15.31,-45.67,-45.95,0,*5C
1484766345.65,4121,6.88,73952.0,-15.31,-45.53,-45.73,0,*52
1484766346.9,4122,6.88,73954.3,-15.31,-45.73,-45.95,0,*5B
1484766348.13,4123,6.88,73954.0,-15.35,-45.87,-45.95,0,*55
1484766349.38,4124,6.88,73952.8,-15.35,-45.73,-45.87,0,*5A
1484766350.61,4125,6.88,73952.8,-15.35,-45.67,-45.95,0,*5D
1484766351.84,4126,6.88,73956.0,-15.35,-45.67,-45.87,0,*5D
1484766353.05,4127,6.88,73952.5,-15.37,-46.01,-46.21,0,*52
1484766354.29,4128,6.88,73952.0,-15.35,-45.87,-46.35,0,*57
1484766355.52,4129,6.88,73956.3,-15.37,-45.81,-46.21,0,*57
1484766356.75,4130,6.88,73950.8,-15.37,-45.95,-46.41,0,*5C
1484766358.01,4131,6.88,73954.3,-15.35,-45.87,-46.27,0,*5C
1484766359.22,4132,6.88,73954.8,-15.37,-45.95,-46.35,0,*5D
1484766360.47,4133,6.88,73952.3,-15.35,-45.73,-45.95,0,*5F
1484766361.73,4134,6.88,73952.8,-15.35,-45.95,-46.15,0,*5B
1484766362.96,4135,6.88,73954.5,-15.37,-45.73,-45.95,0,*5B
1484766364.22,4136,6.88,73956.3,-15.37,-45.81,-46.15,0,*5E
1484766365.45,4137,6.88,73954.3,-15.37,-45.81,-45.95,0,*54
1484766366.68,4138,6.88,73952.3,-15.37,-45.61,-45.81,0,*50
1484766367.94,4139,6.88,73952.0,-15.35,-45.53,-45.73,0,*5F
1484766369.15,4140,6.88,73952.8,-15.37,-45.61,-45.95,0,*5A
1484766370.36,4141,6.88,73952.5,-15.37,-45.61,-45.95,0,*5B
1484766371.62,4142,6.88,73954.0,-15.37,-45.81,-46.15,0,*5D
1484766372.89,4143,6.88,73952.8,-15.39,-45.95,-46.15,0,*57
1484766374.13,4144,6.88,73952.0,-15.39,-45.61,-46.01,0,*5E
1484766375.38,4145,6.88,73952.3,-15.39,-45.73,-45.95,0,*52
1484766376.64,4146,6.88,73954.5,-15.39,-45.61,-45.81,0,*57
1484766377.89,4147,6.88,73954.5,-15.39,-45.73,-45.95,0,*50
1484766379.15,4148,6.88,73954.3,-15.39,-45.73,-46.01,0,*51
1484766380.41,4149,6.88,73954.0,-15.39,-45.95,-46.15,0,*5D
1484766381.68,4150,6.88,73952.8,-15.41,-46.07,-46.27,0,*53
1484766382.9,4151,6.81,73950.3,-15.41,-46.01,-46.21,0,*52
1484766384.13,4152,6.88,73954.0,-15.41,-45.87,-46.27,0,*5A
1484766385.35,4153,6.88,73956.0,-15.41,-46.01,-46.21,0,*50
1484766386.57,4154,6.88,73954.5,-15.41,-46.01,-46.21,0,*57
1484766387.78,4155,6.88,73954.5,-15.41,-45.87,-46.21,0,*5B
1484766388.99,4156,6.88,73952.0,-15.41,-45.87,-46.01,0,*5A
1484766390.21,4157,6.88,73952.5,-15.41,-45.67,-46.01,0,*55
1484766391.42,4158,6.88,73952.0,-15.41,-45.67,-45.87,0,*57
1484766392.67,4159,6.88,73952.0,-15.39,-45.73,-45.95,0,*5F
1484766393.93,4160,6.88,73956.3,-15.43,-45.87,-46.07,0,*5B
1484766395.16,4161,6.88,73952.0,-15.43,-45.67,-45.87,0,*5F
1484766396.4,4162,6.81,73952.0,-15.43,-45.61,-45.87,0,*5A
1484766397.63,4163,6.81,73950.8,-15.43,-45.53,-45.67,0,*54
1484766398.89,4164,6.88,73954.8,-15.43,-45.61,-45.81,0,*5A
1484766400.15,4165,6.88,73954.3,-15.43,-45.67,-45.81,0,*5D
1484766401.38,4166,6.88,73956.0,-15.43,-45.53,-45.67,0,*51
1484766402.61,4167,6.81,73952.5,-15.43,-45.41,-45.67,0,*53
1484766403.84,4168,6.81,73950.8,-15.43,-45.61,-45.67,0,*5E
1484766405.06,4169,6.88,73954.5,-15.43,-45.41,-45.67,0,*5D
1484766406.3,4170,6.88,73956.0,-15.43,-45.41,-45.61,0,*53
1484766407.56,4171,6.88,73958.3,-15.43,-45.53,-45.81,0,*5F
1484766408.79,4172,6.88,73952.3,-15.43,-45.41,-45.67,0,*57
1484766410.0,4173,6.88,73954.0,-15.41,-45.67,-45.87,0,*5E
1484766411.22,4174,6.88,73954.0,-15.41,-45.53,-45.61,0,*56
1484766412.44,4175,6.88,73954.0,-15.41,-45.53,-45.53,0,*56
1484766413.7,4176,6.88,73958.5,-15.39,-45.53,-45.73,0,*58
1484766414.93,4177,6.88,73952.8,-15.41,-45.61,-45.81,0,*5A
1484766416.15,4178,6.88,73958.0,-15.41,-45.41,-45.61,0,*59
1484766417.36,4179,6.88,73952.5,-15.41,-45.53,-45.87,0,*53
1484766418.6,4180,6.88,73954.0,-15.41,-45.81,-46.01,0,*57
1484766419.84,4181,6.81,73954.0,-15.41,-45.87,-46.27,0,*54
1484766421.1,4182,6.88,73956.5,-15.43,-45.81,-46.01,0,*57
1484766422.36,4183,6.81,73952.5,-15.43,-45.61,-45.81,0,*53
1484766423.59,4184,6.88,73954.0,-15.43,-45.67,-45.87,0,*54
1484766424.85,4185,6.88,73958.3,-15.43,-45.81,-46.01,0,*50
1484766426.1,4186,6.88,73952.5,-15.43,-45.81,-45.87,0,*5E
1484766427.31,4187,6.88,73952.8,-15.41,-45.67,-45.87,0,*55
1484766428.52,4188,6.88,73954.0,-15.45,-45.87,-45.87,0,*50
1484766429.76,4189,6.81,73954.5,-15.45,-45.53,-45.81,0,*5E
1484766431.02,4190,6.88,73954.0,-15.43,-45.61,-45.81,0,*51
1484766432.25,4191,6.88,73952.8,-15.43,-45.67,-45.87,0,*50
1484766433.48,4192,6.81,73952.5,-15.43,-45.61,-45.67,0,*5B
1484766434.71,4193,6.88,73954.5,-15.43,-45.33,-45.67,0,*5D
1484766435.94,4194,6.88,73954.5,-15.43,-45.61,-45.67,0,*5D
1484766437.18,4195,6.81,73954.0,-15.43,-45.53,-45.61,0,*5B
1484766438.41,4196,6.88,73952.5,-15.43,-45.53,-45.67,0,*5E
1484766439.64,4197,6.88,73954.8,-15.43,-45.53,-45.67,0,*5F
1484766440.87,4198,6.88,73952.8,-15.43,-45.41,-45.41,0,*57
1484766442.1,4199,6.81,73950.0,-15.43,-45.41,-45.61,0,*54
1484766443.33,4200,6.81,73954.3,-15.43,-45.41,-45.53,0,*56
1484766444.58,4201,6.88,73954.3,-15.43,-45.53,-45.53,0,*54
1484766445.8,4202,6.88,73952.8,-15.43,-45.41,-45.67,0,*53
1484766447.03,4203,6.88,73954.3,-15.43,-45.33,-45.41,0,*53
1484766448.25,4204,6.88,73952.0,-15.43,-45.41,-45.41,0,*51
1484766449.5,4205,6.81,73952.8,-15.43,-45.53,-45.53,0,*50
1484766450.73,4206,6.88,73956.5,-15.43,-45.41,-45.61,0,*51
1484766451.97,4207,6.88,73952.5,-15.41,-45.81,-46.01,0,*5B
1484766453.21,4208,6.81,73952.3,-15.41,-45.61,-45.81,0,*51
1484766454.43,4209,6.81,73948.8,-15.43,-45.41,-45.67,0,*58
1484766455.67,4210,6.88,73956.0,-15.43,-45.53,-45.61,0,*55
1484766456.91,4211,6.81,73950.3,-15.43,-45.53,-45.61,0,*54
1484766458.15,4212,6.88,73954.5,-15.43,-45.53,-45.53,0,*56
1484766459.36,4213,6.88,73952.8,-15.45,-45.61,-45.67,0,*57
1484766460.59,4214,6.81,73954.5,-15.43,-45.53,-45.67,0,*57
1484766461.82,4215,6.81,73950.8,-15.43,-45.53,-45.67,0,*56
1484766463.03,4216,6.88,73954.3,-15.45,-45.41,-45.61,0,*56
1484766464.3,4217,6.81,73950.0,-15.45,-45.27,-45.47,0,*53
1484766465.53,4218,6.81,73952.0,-15.43,-45.41,-45.61,0,*5E
1484766466.76,4219,6.88,73958.0,-15.43,-45.41,-45.67,0,*59
1484766467.99,4220,6.88,73954.0,-15.43,-45.61,-45.87,0,*5F
1484766469.23,4221,6.81,73952.3,-15.43,-45.53,-45.67,0,*51
1484766470.45,4222,6.81,73952.3,-15.43,-45.41,-45.67,0,*51
1484766471.69,4223,6.88,73954.5,-15.43,-45.53,-45.61,0,*55
1484766472.9,4224,6.81,73952.8,-15.45,-45.61,-45.87,0,*5D
1484766474.14,4225,6.81,73950.3,-15.43,-45.41,-45.61,0,*50
1484766475.4,4226,6.88,73954.5,-15.43,-45.61,-45.81,0,*5F
1484766476.63,4227,6.81,73954.8,-15.41,-45.81,-45.87,0,*54
1484766477.89,4228,6.88,73956.0,-15.41,-45.81,-46.07,0,*50
1484766479.15,4229,6.88,73954.3,-15.43,-45.87,-46.15,0,*56
1484766480.38,4230,6.81,73952.3,-15.43,-45.67,-45.87,0,*58
1484766481.62,4231,6.88,73954.3,-15.43,-45.53,-45.87,0,*5E
1484766482.85,4232,6.88,73952.5,-15.43,-45.53,-45.67,0,*53
1484766484.06,4233,6.88,73956.5,-15.45,-45.41,-45.61,0,*51
1484766485.29,4234,6.88,73956.0,-15.43,-45.41,-45.61,0,*50
1484766486.52,4235,6.88,73952.8,-15.43,-45.41,-45.53,0,*50
1484766487.76,4236,6.88,73952.0,-15.45,-45.67,-45.73,0,*53
1484766488.99,4237,6.88,73954.0,-15.45,-45.61,-45.73,0,*54
1484766490.22,4238,6.81,73952.8,-15.43,-45.41,-45.53,0,*5D
1484766491.46,4239,6.81,73952.3,-15.43,-45.21,-45.33,0,*5C
1484766492.69,4240,6.81,73954.0,-15.43,-45.41,-45.61,0,*53
1484766493.92,4241,6.81,73952.3,-15.43,-45.33,-45.61,0,*57
1484766495.16,4242,6.88,73952.5,-15.45,-45.47,-45.61,0,*51
1484766496.39,4243,6.81,73954.0,-15.45,-45.61,-45.73,0,*57
1484766497.65,4244,6.81,73954.3,-15.43,-45.61,-45.81,0,*5B
1484766498.88,4245,6.81,73954.3,-15.45,-45.61,-45.73,0,*51
1484766500.09,4246,6.81,73954.0,-15.45,-45.67,-45.87,0,*5F
1484766501.32,4247,6.81,73954.0,-15.45,-45.47,-45.67,0,*52
1484766502.55,4248,6.88,73954.3,-15.43,-45.61,-45.67,0,*5F